Regional Weather Roundup
Issued by NWS State College, PA

Home | Current Version | Previous Version | Graphics & Text | Print | Product List | Glossary Off
Versions: 1 2 3 4 5 6 7 8 9 10 11 12 13 14 15 16 17 18 19 20 21 22 23 24 25 26 27 28 29 30 31 32 33 34 35 36 37 38 39 40 41 42 43 44 45 46 47 48 49 50

000
ASUS41 KCTP 051910
RWRCTP

REGIONAL WEATHER ROUNDUP
NATIONAL WEATHER SERVICE STATE COLLEGE PA
300 PM EDT THU MAY 05 2016

Note: "fair" indicates few or no clouds below 12,000 feet with no
significant weather and/or obstructions to visibility.

* = STATION THAT DOES NOT REPORT PRECIPITATION /E.G. RAIN...SNOW...ETC/
    THUNDER OR FOG.

PAZ002>004-007>009-013>016-020>023-029>032-052000-
WESTERN PENNSYLVANIA

CITY           SKY/WX    TMP DP  RH WIND       PRES   REMARKS
ERIE           MOSUNNY   58  48  69 NE15G25   29.79R
MEADVILLE      MOSUNNY   58  45  62 NE17G24   29.73S
FRANKLIN*      PTSUNNY   52  46  82 N5        29.73F
NEW CASTLE     CLOUDY    60  48  64 NE13      29.71F
BEAVER COUNTY  PTSUNNY   52  48  87 N3        29.71F
BUTLER*        MOSUNNY   61  48  63 NW12G17   29.72S
PITTSBURGH INT PTSUNNY   59  47  64 N13       29.68S
PITTSBURGH     MOSUNNY   55  47  74 NW7       29.66F
INDIANA*       PTSUNNY   57  52  82 NE6       29.70S
LATROBE        PTSUNNY   54  50  87 E7        29.67F
WASHINGTON CO* NOT AVBL
$$

PAZ004>006-010>012-017>019-024>028-033>037-041-042-045-046-049>053-052000-
CENTRAL PENNSYLVANIA

CITY           SKY/WX    TMP DP  RH WIND       PRES   REMARKS
BRADFORD       CLOUDY    54  41  61 VRB7      29.73S
DUBOIS         CLOUDY    58  40  51 NE15      29.68S
CLEARFIELD     CLOUDY    59  41  51 NE10G20   29.68F
JOHNSTOWN      MOSUNNY   57  42  57 NE12G20   29.65F
ALTOONA        CLOUDY    57  45  64 NE9G18    29.67F
STATE COLLEGE  CLOUDY    57  45  62 NE15      29.66F
WILLIAMSPORT   CLOUDY    59  41  51 NE7       29.68S
SELINSGROVE    CLOUDY    57  45  64 NE8       29.69F
FT INDIANTOWN  CLOUDY    57  45  62 N10       29.66F
CAPITAL CITY   CLOUDY    59  44  57 VRB5      29.66F
HARRISBURG     CLOUDY    57  44  62 NE6       29.66F
YORK           CLOUDY    55  47  74 NE7       29.66F
$$

PAZ038>040-043-044-047-048-054-055-060>062-067>071-052000-
EASTERN PENNSYLVANIA

CITY           SKY/WX    TMP DP  RH WIND       PRES   REMARKS
SCRANTON       CLOUDY    56  44  64 N8        29.68S
MOUNT POCONO   CLOUDY    49  42  77 N8        29.66F
ALLENTOWN      CLOUDY    59  45  59 E13       29.65F
QUAKERTOWN*    CLOUDY    55  46  71 NE7       29.66F
READING        CLOUDY    57  49  74 VRB5      29.65F
LANCASTER      CLOUDY    55  46  71 N10       29.66S
COATESVILLE    CLOUDY    54  50  87 MISG      29.66F
POTTSTOWN      CLOUDY    54  45  71 N7        29.66F
BLUE BELL      CLOUDY    54  46  76 N5        29.64F
DOYLESTOWN     CLOUDY    54  44  69 NE6       29.64F
WILLOW GROVE   NOT AVBL
NORTH PHILA    CLOUDY    56  46  69 NE10      29.66F
PHILADELPHIA   CLOUDY    56  45  66 NE13      29.65F
$$




USA.gov is the U.S. government's official web portal to all federal, state and local government web resources and services.